Location: Unspecified
(0.0000°N, 0.0000°E)
Time: 01:46:31
(UTC+01:00)

SJ-6B - Visible Passes

Search period start: 23 February 2018 00:00
Search period end: 05 March 2018 00:00
Orbit: 511 x 583 km, 97.7° (Epoch: 22 February)

Date Brightness Start Highest point End Pass type
(mag) Time Alt. Az. Time Alt. Az. Time Alt. Az.
23 Feb5.019:55:13NNE19:55:13NNE19:49:20ESEvisible
23 Feb 5.4 21:23:03 10° SSW 21:30:52 - NW 21:24:58 18° WSW visible
24 Feb 5.2 21:17:34 10° SSW 21:25:25 - NW 21:19:22 19° SW visible
25 Feb 5.0 21:12:09 10° SSW 21:20:00 - NNW 21:13:44 20° SW visible
26 Feb 5.0 21:06:47 10° SSW 21:14:34 - NNW 21:08:07 19° SSW visible
27 Feb 5.0 21:01:28 10° S 21:09:10 - NNW 21:02:28 17° SSW visible
28 Feb 5.1 20:56:11 10° S 21:03:47 - NNW 20:56:49 14° S visible
01 Mar 5.3 20:50:55 10° S 20:58:24 10° NNW 20:51:08 11° S visible
02 Mar 5.4 20:53:03 11° NNW 20:53:03 11° NNW 20:53:12 10° NNW visible
03 Mar 5.2 20:47:42 12° N 20:47:42 12° N 20:48:02 10° N visible
04 Mar 5.1 20:42:21 13° N 20:42:21 13° N 20:42:50 10° N visible
